Dewpoint
37 35 34 34 33 33 33 34 35 36 36 36 36 36 37 38 39 39 40 41 41 41 42 42 43 43 43 43 43 43 42 41 39 40 39 39 39 39 39 39 39 38 38
33 32 32 33 32 32 33 34 35 33 34 33 33 33 33 34 36 35 36 38 38 38 40 40 41 41 42 42 42 42 42 41 40 39 39 39 39 40 39 39 38 38 37
32 32 31 31 31 31 32 32 33 32 31 32 31 31 31 34 34 35 35 34 34 35 36 37 38 39 39 40 41 41 41 41 41 39 39 40 39 39 39 38 38 38 38
32 31 30 31 31 31 31 31 32 31 31 31 31 32 33 34 36 36 36 35 34 35 36 36 36 36 37 37 37 38 38 38 37 37 36 36 36 36 38 37 36 37 37
31 32 31 31 31 31 31 32 32 32 32 32 32 32 33 36 37 38 36 35 35 34 35 35 36 37 38 38 36 36 36 36 36 36 36 36 36 36 36 37 37 37 37
30 31 31 32 31 32 32 32 32 32 32 32 32 33 33 35 40 40 36 35 35 35 34 35 36 37 37 39 40 40 39 37 36 36 36 35 35 35 36 36 37 36 35
30 30 31 31 30 31 31 31 29 29 30 30 30 29 32 34 37 38 37 36 36 35 35 35 35 35 37 38 39 39 38 38 38 37 36 35 35 36 37 36 35 36 35
30 30 30 30 30 30 28 27 28 27 27 26 26 26 28 27 34 36 34 33 35 36 36 36 34 32 33 36 34 32 32 33 35 37 37 37 38 40 39 38 38 38 37
29 29 30 30 28 27 25 25 26 26 27 26 25 24 23 22 31 33 32 29 29 30 31 30 30 28 33 35 31 29 29 28 29 33 35 36 36 35 34 37 37 36 33
29 29 29 29 26 24 24 24 26 25 25 25 23 24 24 22 26 32 32 28 25 26 28 27 30 31 33 34 31 29 26 25 29 30 29 28 28 29 33 36 36 33 33
30 28 27 27 25 23 24 24 26 25 26 23 21 19 21 22 22 30 31 28 26 26 25 23 25 30 33 33 32 28 27 29 28 27 27 27 28 28 28 29 31 33 33
28 26 25 25 24 24 25 23 22 21 21 19 18 18 18 19 24 27 30 30 29 27 24 24 26 31 32 32 31 29 30 28 25 24 25 26 27 29 29 29 29 30 31
26 24 24 24 23 24 23 22 19 19 16 14 16 17 16 19 20 26 29 30 30 29 28 29 32 32 32 31 30 30 31 27 24 25 25 26 28 29 30 31 30 30 32
24 22 22 22 21 22 23 20 17 18 17 16 16 17 18 18 19 22 23 24 29 31 30 30 30 32 32 31 29 27 25 25 25 25 27 28 29 29 29 29 29 30 28
22 21 21 20 21 20 22 21 18 18 20 18 18 18 18 18 20 23 24 27 30 30 32 30 29 27 25 25 25 26 27 25 25 26 27 27 27 28 28 29 30 30 28
20 20 20 20 22 20 21 20 25 25 25 27 27 24 24 26 30 31 32 33 32 32 30 28 26 26 25 24 24 24 25 26 27 27 27 27 27 27 28 29 30 30 28
18 18 20 17 17 18 22 27 20 21 27 28 29 30 31 30 30 31 31 31 31 30 28 26 27 26 25 24 24 24 24 24 25 25 26 27 27 27 26 27 28 28 27
20 20 19 19 25 31 30 19 17 16 15 16 24 26 27 28 29 29 30 30 28 27 27 27 26 25 25 25 26 26 25 23 23 23 24 25 25 25 25 26 26 27 27
24 24 25 30 32 28 20 19 19 18 18 17 19 22 25 26 27 27 28 27 25 25 26 26 26 26 26 26 26 26 26 25 25 25 24 25 24 26 26 26 26 24 25
29 32 33 31 25 22 23 22 20 20 19 20 20 20 20 22 22 22 22 23 25 25 24 25 26 26 27 27 28 26 26 26 26 25 24 24 24 26 27 26 26 26 25
33 32 29 24 20 19 19 20 20 20 21 20 20 20 21 23 23 23 23 24 25 25 26 26 27 27 28 28 27 27 27 27 26 25 25 25 25 25 29 27 24 24 23
27 22 20 21 24 24 22 22 21 21 20 20 20 22 24 24 23 24 24 25 25 26 26 27 28 28 28 29 29 29 26 25 25 25 25 25 26 26 24 24 24 24 24
20 19 19 18 19 19 20 21 21 21 20 20 20 21 21 22 23 23 23 22 23 25 26 27 28 28 28 28 29 27 24 25 25 26 25 25 26 27 26 25 24 25 26
19 18 17 16 17 18 18 20 21 22 22 21 21 21 21 22 22 22 22 22 23 24 25 27 28 27 28 28 27 26 25 26 26 26 27 25 24 24 24 24 25 24 24
22 21 20 19 19 19 20 21 20 20 21 22 22 23 23 23 23 24 24 23 24 24 25 26 27 28 27 27 26 25 24 23 24 26 27 26 25 24 24 24 24 24 25
21 20 20 19 20 20 20 20 21 22 23 23 24 24 24 25 25 26 25 24 23 24 25 26 27 26 26 26 26 25 24 24 25 26 28 28 27 27 27 27 26 25 25
Wind_Speed
13 12 11 9 8 7 6 6 5 5 4 3 2 2 2 1 1 0 1 1 3 3 3 5 6 5 6 6 5 6 7 8 12 14 14 15 15 16 15 13 12 12 11
14 12 11 10 9 9 8 7 6 6 5 4 3 3 2 3 3 3 2 2 3 3 4 4 5 4 6 6 6 7 8 9 10 14 14 14 14 14 15 16 14 12 12
14 13 12 12 11 11 10 9 8 7 6 5 4 3 3 3 3 3 2 2 2 3 4 4 5 6 6 6 7 8 8 8 10 11 12 13 15 14 15 15 15 13 11
16 15 15 14 13 12 10 9 8 6 6 5 4 4 4 3 3 3 3 3 3 4 4 5 5 5 6 7 7 7 7 9 10 12 13 13 12 12 13 14 14 14 15
17 16 15 13 12 11 11 9 8 7 5 4 5 4 4 3 4 4 3 3 3 3 3 4 4 5 5 5 5 7 8 8 8 10 11 12 12 12 13 15 16 16 16
17 16 15 14 13 12 11 10 9 8 6 5 5 4 4 3 4 4 2 2 2 3 3 4 4 5 5 5 6 5 6 7 9 9 11 12 13 11 11 12 14 13 10
18 16 16 15 15 13 12 11 10 9 7 6 5 4 4 3 2 3 2 1 1 2 2 3 3 4 5 7 7 6 5 6 7 9 12 13 15 13 12 13 14 14 15
17 16 16 16 16 14 13 12 11 10 9 8 6 5 4 3 1 2 1 1 0 0 0 1 3 5 7 9 10 10 10 10 9 9 12 14 12 12 12 13 14 13 15
20 20 19 19 17 16 15 13 11 10 8 8 6 6 5 5 3 1 2 2 1 1 1 2 4 5 7 8 9 10 12 11 8 10 12 14 13 15 13 11 11 11 15
22 22 20 19 18 17 16 14 11 10 9 7 7 6 5 4 3 3 4 3 2 1 1 2 1 5 7 8 10 10 12 13 14 14 14 13 13 12 11 8 8 10 10
19 18 18 17 17 15 13 11 10 9 8 8 7 6 5 6 6 6 4 3 2 3 3 4 4 7 9 10 9 9 11 16 16 15 13 13 11 11 10 9 10 11 12
18 18 17 16 13 13 13 10 10 9 9 8 7 6 6 7 8 7 6 6 4 5 6 6 7 7 11 12 11 11 14 13 12 14 14 14 12 11 10 10 13 13 14
18 18 16 15 14 13 14 13 11 10 9 8 8 7 7 7 6 7 7 7 7 7 7 9 13 15 15 13 11 13 15 12 12 12 13 13 13 13 14 13 12 12 14
20 19 17 16 14 13 11 11 11 10 9 8 8 8 7 7 7 6 6 6 7 7 8 10 11 14 16 16 15 13 11 12 13 14 14 14 13 14 14 12 14 15 15
17 16 16 15 15 13 11 11 10 9 9 9 9 8 7 7 7 6 7 7 7 8 9 11 11 12 12 12 13 13 12 14 13 14 14 14 14 14 15 13 14 15 17
18 15 14 13 13 11 9 8 7 9 9 13 13 10 7 11 11 11 12 13 13 12 11 13 14 13 14 14 14 14 14 15 14 14 15 15 16 15 16 14 14 16 17
17 15 13 12 11 10 6 4 13 8 13 14 14 15 16 15 13 13 13 13 14 13 14 14 13 13 14 14 14 13 14 13 13 15 16 16 16 16 17 16 15 16 18
12 14 11 10 7 2 10 13 9 9 9 8 10 13 13 14 13 13 13 13 13 14 14 15 15 14 15 15 14 14 13 13 14 15 15 15 17 18 18 16 16 18 17
11 9 7 4 7 13 11 10 10 10 10 10 8 8 11 14 13 14 15 15 16 15 14 15 15 16 16 15 14 14 14 14 15 15 16 17 19 19 19 16 17 21 22
7 6 9 12 12 11 10 11 11 11 11 11 11 11 8 5 8 9 11 13 14 15 15 15 15 16 16 15 14 14 14 16 16 16 18 17 19 19 19 18 17 17 18
9 10 14 12 12 12 12 12 12 11 12 11 12 11 11 10 10 10 11 12 13 14 15 15 15 15 14 14 15 14 14 16 17 19 17 18 18 22 15 14 18 18 22
10 12 11 14 11 12 12 11 12 12 12 12 11 10 13 12 12 12 13 13 13 13 13 14 14 13 13 13 13 14 16 19 18 17 18 19 18 19 19 19 19 19 22
11 12 11 11 12 13 12 13 13 13 13 13 11 10 10 11 12 13 13 12 11 12 12 12 14 14 13 13 14 14 17 18 17 16 20 22 20 16 16 20 22 20 17
11 12 13 13 12 13 13 14 13 14 14 12 12 12 12 12 13 14 14 13 12 13 13 13 13 16 16 15 15 15 16 16 17 18 20 21 22 22 20 20 20 21 21
12 13 13 13 12 13 13 14 13 13 13 13 13 13 13 13 14 14 13 12 12 12 13 14 15 15 17 18 18 20 20 25 25 24 21 21 24 25 25 22 23 22 21
11 11 12 12 12 12 12 13 13 13 14 14 13 13 13 13 14 14 12 12 13 13 15 15 15 18 19 19 20 22 26 28 26 26 23 20 21 21 20 21 23 21 20
Wind_Direction
168 165 163 160 160 163 168 168 172 168 167 161 145 129 115 109 57 337 343 325 297 292 271 276 277 278 276 275 270 266 265 260 271 286 293 301 303 305 310 313 311 308 306
167 164 162 159 163 167 171 170 172 169 165 155 141 128 110 88 65 41 360 2 339 326 325 315 308 304 289 289 285 281 281 282 277 284 296 303 307 310 308 309 312 305 303
164 164 164 167 171 174 173 173 174 168 155 142 139 125 108 90 78 60 12 6 1 356 355 343 336 326 315 321 307 302 300 297 292 290 292 300 304 305 308 308 309 306 306
169 171 172 175 177 175 172 173 167 163 155 147 128 111 100 89 59 44 23 18 24 32 25 13 4 353 340 334 323 318 313 307 302 297 299 304 307 314 307 306 316 316 312
172 175 178 174 172 171 172 169 163 159 148 137 130 115 108 83 45 32 38 38 41 51 51 34 34 23 14 7 343 338 326 318 321 315 313 319 321 327 323 322 312 316 311
177 180 175 172 171 174 172 170 165 160 156 153 144 135 132 108 67 55 29 52 60 53 46 38 41 34 26 25 18 358 338 328 324 317 312 311 312 315 312 308 311 311 316
181 178 175 174 176 178 174 172 172 172 165 166 155 153 147 131 62 64 42 36 62 70 48 20 13 11 357 349 347 329 323 320 297 308 306 310 315 323 321 310 306 304 295
182 178 177 178 179 178 178 181 177 174 173 168 164 161 161 147 88 87 76 56 82 109 106 351 344 347 1 345 334 329 326 324 320 316 306 306 316 325 326 312 295 291 288
185 184 183 182 180 181 185 183 180 178 173 174 174 172 179 180 189 190 212 211 210 162 4 14 347 340 352 345 333 328 323 322 323 303 298 301 310 310 312 303 292 304 304
189 189 184 184 184 186 185 181 178 180 175 172 179 192 201 205 202 235 223 217 227 304 311 310 296 342 339 344 332 326 318 322 320 315 312 311 312 314 316 308 307 303 300
186 180 181 185 187 186 178 175 173 174 174 185 194 198 206 215 212 223 230 236 258 275 283 302 317 326 323 323 318 310 308 312 308 305 303 302 299 299 305 302 299 295 289
175 177 180 181 178 177 175 171 174 178 188 195 201 209 212 212 223 221 230 244 250 269 289 299 302 298 299 295 291 284 293 296 295 298 301 298 298 294 290 290 292 288 285
176 178 178 176 176 175 176 178 182 190 197 200 205 213 215 212 227 224 244 247 250 264 275 287 296 301 301 297 286 284 290 283 278 277 276 279 283 288 292 288 276 275 280
176 177 176 176 175 176 181 186 190 192 199 208 215 225 222 222 232 231 236 237 242 252 263 276 282 286 288 288 294 295 290 284 281 279 277 277 279 276 275 281 287 289 288
175 176 175 173 177 180 189 191 199 211 203 211 221 226 228 233 237 235 240 236 248 260 272 277 277 279 281 283 285 286 286 287 286 286 283 283 282 279 276 277 275 278 283
175 175 175 174 177 181 184 200 225 233 226 232 236 230 236 241 250 252 253 256 261 268 274 272 275 276 280 284 288 291 293 293 290 290 287 284 282 280 281 280 273 268 275
172 168 170 174 174 173 177 224 237 226 235 240 241 242 240 250 256 260 263 265 267 269 259 261 261 267 274 276 276 275 280 285 293 293 293 290 287 285 288 282 276 270 275
152 150 157 167 167 182 227 227 225 229 234 236 235 239 244 247 256 262 266 275 270 257 254 259 262 263 264 265 266 269 277 281 282 288 283 284 284 281 278 272 274 274 274
145 147 149 151 226 227 217 218 225 228 232 242 243 248 246 254 263 264 260 251 255 256 252 254 257 260 259 260 263 268 274 282 282 284 284 280 279 276 272 272 280 286 284
145 168 210 219 219 212 210 219 223 227 236 238 238 242 250 249 246 248 244 244 249 255 258 259 261 261 260 257 260 267 273 276 279 281 282 279 279 274 268 269 274 282 283
207 221 219 217 218 216 216 219 223 226 232 235 239 237 233 236 255 261 265 260 259 263 267 270 270 268 265 263 267 276 279 281 283 284 280 281 276 271 267 287 282 279 283
221 225 221 224 223 222 225 226 228 230 235 240 243 236 235 243 254 261 266 270 272 272 272 272 272 273 271 270 273 274 282 284 283 280 280 279 278 279 279 277 274 280 279
224 229 229 233 229 234 238 231 229 229 234 238 238 238 231 239 249 252 257 257 261 266 270 268 269 270 268 266 261 267 277 279 282 289 287 283 278 281 284 279 275 271 278
225 230 233 234 226 229 232 233 233 235 236 237 241 242 244 247 253 256 257 262 265 265 266 269 269 274 276 277 275 277 279 272 271 274 277 280 279 278 274 273 273 271 270
222 225 226 228 227 234 240 238 238 238 235 231 234 242 252 258 259 254 248 259 265 266 266 268 271 273 272 272 272 277 276 279 282 277 274 270 268 268 266 265 265 262 259
234 235 237 237 237 239 240 240 239 235 235 236 238 243 249 254 252 246 251 268 264 262 268 275 275 277 277 275 276 278 282 287 286 282 279 275 274 273 270 266 265 258 258